Skip Page Navigation
NASA JPL Caltech
NASA Logo - Jet Propulsion Laboratory + View the NASA Portal
+ Near-Earth Object (NEO) Program
Search JPL
JPL Home Earth Solar System Stars & Galaxies Technology
JPL Solar System Dynamics
BODIES ORBITS EPHEMERIDES TOOLS PHYSICAL DATA DISCOVERY FAQ SITE MAP
JPL Small-Body Database Browser
Search: [ help ]  
13226 Soulie (1997 SH)
Classification: Main-belt Asteroid          SPK-ID: 2013226
Ephemeris | Orbit Diagram | Orbital Elements | Physical Parameters | Discovery Circumstances | Close-Approach Data ]

[ show orbit diagram ]
Orbital Elements at Epoch 2456800.5 (2014-May-23.0) TDB
Reference: JPL 9 (heliocentric ecliptic J2000)
 Element Value Uncertainty (1-sigma)   Units 
e .06993705230490362 6.3573e-08  
a 2.968992519506607 3.2353e-08 AU
q 2.761349934377006 1.8902e-07 AU
i 9.082748373651107 7.0203e-06 deg
node 274.5054207595704 5.0117e-05 deg
peri 354.5231394009471 7.6493e-05 deg
M 160.0130089556195 5.9731e-05 deg
tp 2455969.951739233916
(2012-Feb-12.45173923)
0.00030662 JED
period 1868.58165987441
5.12
3.0542e-05
8.362e-08
d
yr
n .1926594955578212 3.1491e-09 deg/d
Q 3.176635104636208 3.4615e-08 AU
  Orbit Determination Parameters
   # obs. used (total)      778  
   data-arc span      13267 days (36.32 yr)  
   first obs. used      1977-10-16  
   last obs. used      2014-02-11  
   planetary ephem.      DE431  
   SB-pert. ephem.      SB431-BIG16  
   condition code      0  
   fit RMS      .54269  
   data source      ORB  
   producer      Otto Matic  
   solution date      2014-Jun-09 20:35:30  

Additional Information
 Earth MOID = 1.74499 AU 
 T_jup = 3.241 
[ show covariance matrix ]

Ephemeris | Orbit Diagram | Orbital Elements | Physical Parameters | Discovery Circumstances | Close-Approach Data ]

Physical Parameter Table
Parameter Symbol Value Units Sigma Reference Notes
absolute magnitude H 13.5 mag n/a MPO266028  

13226 Soulié           Discovered 1997 Sept. 20 by L. Sarounová at Ondrejov.
Guy Soulié (b. 1920) made photometric observations of the zodiacal light, measured positions of comets, planets and their satellites and wrote astrometric reduction programs. A member of the Hipparcos Input Catalog team, he also discovered double stars and minor planets. The name was suggested by J. Montanné.
NOTE: some special characters may not display properly (any characters within {} are an attempt to place the proper accent above a character)
Reference: 20010309/MPCPages.arcLast Updated: 2009-05-11

[ show close-approach data ]
Alternate Designations
 1997 SH = 1179 T-3 
Ephemeris | Orbit Diagram | Orbital Elements | Physical Parameters | Discovery Circumstances | Close-Approach Data ]
ABOUT SSD CREDITS/AWARDS PRIVACY/COPYRIGHT GLOSSARY LINKS
FirstGov 2014-Jul-24 16:56 UT
(server date/time)  
NASA Home Page
Site Manager:   Donald K. Yeomans
Webmaster  Alan B. Chamberlin